SCP
0 0 0 0 0 0 0 0 1 2 2 2 3 4 5 6 6 7 8 10 11 9 7 6 6 5 5 4 4 4 4 4 3 3 3 3 3 3 3 2 2 2 2 1
0 0 0 0 0 0 1 1 2 3 3 3 4 5 5 5 6 7 9 10 10 8 7 6 5 5 5 5 5 4 4 3 3 3 3 3 3 3 2 2 2 2 2 2
0 0 0 1 1 1 1 2 3 3 3 4 5 6 5 5 5 7 8 8 7 6 6 5 4 5 6 6 6 5 4 3 3 3 4 3 3 3 3 2 2 2 2 2
0 0 0 1 1 2 2 3 3 3 4 5 7 7 6 5 5 6 6 6 5 5 5 5 5 7 8 8 6 5 4 3 3 3 4 4 4 3 3 3 2 2 2 2
0 0 1 1 2 2 3 3 3 3 4 6 8 8 6 6 6 6 6 6 6 6 5 6 7 9 10 8 6 5 3 3 2 3 4 4 4 4 3 3 3 2 2 2
0 1 1 2 3 2 2 3 2 3 4 7 8 8 8 8 8 8 8 8 8 7 7 8 10 11 10 8 6 4 3 2 2 3 4 4 4 4 3 3 3 3 3 3
0 1 2 3 3 3 2 2 2 3 5 7 8 10 12 13 12 10 8 7 7 8 9 10 11 11 9 6 5 3 3 2 2 3 3 4 3 3 3 3 3 3 3 3
1 1 2 3 3 2 2 2 3 4 6 9 11 13 14 14 12 10 8 6 6 7 9 10 10 8 6 5 4 4 3 2 3 3 3 3 3 2 2 2 2 2 2 2
1 2 2 3 3 3 3 4 6 8 9 10 11 11 11 11 10 9 8 7 6 7 9 9 8 6 5 5 5 4 3 3 3 3 3 3 2 2 2 2 1 1 2 2
3 3 3 3 3 3 4 7 9 10 9 9 8 8 7 8 8 8 8 8 7 7 8 9 8 6 5 5 5 5 4 3 3 3 3 2 2 2 2 1 1 1 1 1
4 3 3 3 3 4 6 9 10 8 7 7 6 6 6 8 9 9 9 8 7 7 7 7 6 5 4 4 5 5 4 4 4 3 3 2 2 1 1 1 1 1 1 1
3 3 3 4 4 6 8 9 8 7 6 5 6 7 8 9 9 10 9 8 7 6 6 5 5 4 4 4 4 5 5 5 5 4 2 1 1 1 1 1 0 0 0 1
4 5 6 7 8 9 9 8 7 6 5 4 6 8 10 10 9 9 8 6 5 5 5 5 4 4 4 4 4 5 5 6 5 4 2 1 1 1 0 0 0 0 0 0
6 8 11 12 11 10 8 6 6 5 4 4 6 9 11 10 9 7 6 4 4 4 5 5 4 4 4 4 4 4 5 6 6 4 2 1 1 1 1 1 0 0 0 0
6 10 13 12 10 7 6 5 5 6 5 5 7 9 11 11 10 8 6 4 4 4 4 4 4 3 3 3 3 4 5 5 5 4 2 1 1 1 1 1 0 0 0 0
4 7 10 10 7 5 4 4 5 6 7 9 11 12 13 12 11 9 7 5 4 4 3 2 2 2 2 2 2 3 3 4 4 4 3 2 1 1 1 0 0 0 0 0
2 4 6 7 5 3 2 3 3 5 9 12 15 15 14 13 11 8 6 5 4 3 2 1 1 1 1 1 1 1 1 2 3 3 3 2 1 0 0 0 0 0 0 0
2 3 4 4 3 2 2 2 2 4 8 11 13 13 11 9 7 5 3 2 2 1 1 1 1 1 1 1 1 0 1 1 2 2 2 1 0 0 0 0 0 0 0 0
2 2 2 2 2 1 1 1 2 3 4 6 7 6 5 4 3 2 1 0 0 0 0 0 0 0 0 0 0 0 0 1 1 1 1 0 0 0 0 0 0 0 0 0
1 1 2 2 2 1 1 1 1 1 1 2 2 2 1 1 1 1 1 0 0 1 0 0 0 0 0 0 0 0 0 0 0 0 0 0 0 0 0 0 0 0 0 0
1 1 1 1 1 1 1 1 1 0 0 0 0 0 0 1 1 1 1 0 0 0 0 0 0 0 0 0 0 0 0 0 0 0 0 0 0 0 0 0 0 0 0 0
1 1 1 1 1 1 1 1 1 0 0 0 0 0 0 0 1 1 1 0 0 0 0 0 0 0 0 0 0 0 0 0 0 0 0 0 0 0 0 0 0 0 0 0
1 1 1 1 1 1 1 1 1 0 0 0 0 0 0 0 0 0 0 0 0 0 0 0 0 0 0 0 0 0 0 0 0 0 0 0 0 0 0 0 0 0 0 -0
1 1 0 0 0 0 0 0 0 0 0 0 0 0 0 0 0 0 0 0 0 0 0 0 0 0 0 0 0 0 0 0 0 0 0 0 0 0 0 0 0 0 0 0
1 1 0 0 0 0 0 0 0 0 0 0 0 0 0 0 0 0 0 0 0 0 0 0 0 0 0 0 0 0 0 0 0 0 0 0 0 0 0 0 0 0 0 0
0 0 0 0 0 0 0 0 0 0 0 0 0 0 0 0 0 0 0 0 0 0 0 0 0 0 0 0 0 0 0 0 0 0 0 0 0 0 0 0 0 0 0 0
0 0 0 0 0 0 0 0 0 0 0 0 0 0 0 0 0 0 0 0 0 0 0 0 0 0 0 0 0 0 0 0 0 0 0 0 0 0 0 0 0 0 0 0
Wind_Speed
4 3 1 3 4 4 5 8 8 7 7 7 6 5 4 4 6 7 7 7 6 5 5 6 6 5 5 5 5 5 6 5 4 4 3 3 3 3 3 3 3 3 3 2
2 3 2 2 2 4 4 5 5 5 4 5 4 4 5 5 8 8 7 7 6 5 6 5 5 5 5 5 4 5 6 5 5 4 3 3 3 3 3 3 3 3 3 2
2 3 4 3 4 3 3 4 8 7 6 5 6 6 6 6 7 7 7 6 7 6 6 6 5 5 5 5 4 5 5 4 4 4 4 4 4 3 3 3 3 3 2 2
1 3 2 7 4 3 4 2 3 5 6 8 8 6 4 5 7 6 6 6 5 4 4 4 4 4 4 5 5 5 5 4 4 4 4 4 4 4 3 3 3 3 2 3
3 2 3 5 3 0 3 1 1 5 7 8 8 8 4 2 5 6 6 5 4 4 5 5 5 5 6 6 5 5 4 4 4 5 5 5 4 4 3 3 3 3 3 3
4 3 4 6 5 3 5 1 2 5 7 6 6 5 2 2 5 6 5 5 5 4 5 6 4 5 7 5 5 4 3 3 4 5 5 5 5 4 3 4 3 3 3 3
4 3 5 5 6 2 4 6 2 4 7 6 4 5 5 5 6 6 6 6 5 6 5 4 4 6 7 5 3 2 3 4 4 4 4 5 5 4 4 4 4 4 4 3
4 3 7 5 2 2 5 3 3 4 5 8 7 7 7 8 8 7 6 5 5 6 5 4 4 6 7 4 2 3 4 4 4 4 3 4 5 5 5 5 5 4 4 4
6 6 5 1 1 1 3 4 3 3 5 9 9 8 8 7 8 7 6 5 5 6 6 5 4 5 6 3 3 4 5 4 4 5 4 4 5 5 4 4 4 3 3 3
2 1 1 3 4 4 4 4 3 4 6 9 9 9 8 7 6 5 5 5 5 7 6 5 3 4 4 4 4 5 6 5 5 6 6 5 4 4 4 4 4 3 3 3
1 1 3 4 3 3 4 5 6 6 6 8 10 8 8 7 6 5 5 4 5 6 6 4 4 4 4 4 5 6 5 5 5 5 6 6 6 5 4 3 2 4 3 3
3 3 2 2 0 4 5 5 5 6 6 6 8 8 7 6 5 5 5 5 6 6 6 5 4 4 3 3 4 6 5 4 4 4 4 5 6 7 11 9 9 8 6 5
3 2 2 2 2 4 6 5 5 6 6 6 6 7 7 5 4 5 5 6 6 6 5 5 5 4 3 3 4 5 5 4 3 4 4 5 5 6 6 7 11 12 9 8
3 4 3 2 2 4 6 6 6 7 7 7 7 7 7 7 6 5 5 5 6 6 6 5 5 4 2 3 5 5 5 5 4 3 4 4 5 5 5 6 5 4 6 8
2 2 3 3 4 4 5 6 7 7 6 6 7 8 8 8 7 6 5 5 6 6 5 5 5 3 3 4 5 5 4 3 3 3 4 4 5 5 5 5 5 4 3 4
2 3 4 5 5 4 4 6 6 5 5 6 6 7 7 7 7 6 5 6 6 5 4 4 4 2 2 4 5 4 4 6 5 4 4 4 5 5 5 5 5 4 4 3
2 1 3 4 4 3 3 4 5 5 6 6 6 7 8 8 7 6 5 5 5 5 4 4 3 2 3 4 4 3 3 4 7 5 4 4 4 5 5 5 5 4 4 4
2 2 3 5 5 4 3 4 5 6 6 7 8 8 8 8 7 6 5 5 6 6 5 3 3 4 4 5 4 3 3 4 4 4 4 4 4 4 5 5 5 6 4 5
3 3 3 4 4 4 4 4 5 6 7 8 9 8 7 7 6 6 6 6 6 5 3 3 5 5 5 5 5 4 4 5 5 5 5 6 5 4 5 5 5 4 5 4
3 4 5 4 5 5 5 6 6 7 7 8 9 8 7 6 6 6 6 5 3 2 2 3 4 5 4 5 7 4 5 5 6 5 5 5 5 5 4 5 5 5 4 4
4 4 5 5 6 6 6 7 7 7 7 8 8 8 7 6 6 6 6 5 2 4 5 5 4 4 4 5 6 4 4 5 5 5 5 5 6 5 5 5 5 5 4 4
4 5 6 7 7 6 5 6 7 8 8 7 8 8 8 7 6 6 5 3 3 5 4 3 3 5 5 5 4 4 4 4 4 4 5 5 5 5 5 4 4 4 4 4
4 5 6 7 7 7 6 6 7 7 7 7 7 7 7 5 4 5 4 2 3 5 4 3 5 7 7 5 4 4 5 5 4 4 4 4 4 5 4 4 4 4 4 4
5 6 6 7 7 8 7 6 6 6 7 7 6 6 6 5 4 3 3 5 6 6 4 4 7 7 6 4 4 4 4 4 4 4 4 4 4 4 4 4 4 3 3 4
5 6 6 7 7 6 6 6 7 6 6 5 5 5 4 3 4 4 4 5 6 6 4 5 6 6 4 4 4 4 3 3 4 4 4 4 4 4 4 4 4 4 4 4
5 5 5 5 5 5 5 5 5 4 4 4 4 3 3 3 4 4 3 4 5 6 4 3 3 4 3 4 4 4 4 4 4 4 5 5 5 5 4 4 5 4 3 3
5 4 4 4 4 4 5 5 5 4 4 4 4 3 4 4 4 4 4 3 3 3 3 3 3 3 3 4 4 3 4 4 4 4 4 4 4 4 4 4 3 3 3 3
Wind_Direction
206 230 228 223 231 200 165 171 174 205 198 217 202 176 154 132 120 117 115 106 115 120 130 132 129 135 150 148 143 146 144 152 171 166 159 152 151 150 141 142 143 135 134 136
338 336 357 327 259 213 190 170 164 158 210 212 173 119 108 118 121 121 125 124 126 124 127 133 139 145 147 146 145 140 148 160 162 151 149 149 146 137 128 128 131 128 131 131
301 322 30 303 253 209 189 174 158 184 210 164 137 140 151 143 130 126 126 123 130 140 141 152 154 149 153 153 145 140 140 147 147 148 152 149 145 134 134 134 125 122 127 123
94 55 217 250 264 168 159 192 176 169 170 159 152 141 126 133 131 126 127 128 132 134 128 130 130 132 133 123 128 132 130 132 143 147 146 140 134 133 136 125 119 120 115 118
112 136 273 297 319 264 143 278 87 133 143 148 133 93 61 87 122 133 136 139 146 133 121 109 109 121 118 113 115 120 129 137 147 144 140 137 138 139 132 118 108 105 106 109
119 147 220 254 288 294 107 274 322 119 130 148 126 116 191 152 118 113 108 110 110 102 97 98 104 108 106 106 109 119 135 138 141 139 138 140 141 133 119 112 110 105 89 85
142 185 252 260 294 41 136 215 222 136 130 127 131 163 161 127 107 101 98 91 95 99 95 101 107 105 100 94 97 113 116 109 112 117 128 130 131 124 120 114 102 94 90 75
148 177 244 293 20 139 193 182 130 114 117 117 122 121 117 112 109 105 99 95 99 100 94 92 102 109 111 117 133 111 105 104 103 105 113 116 120 115 113 114 106 97 92 80
177 200 236 295 125 162 138 122 115 103 121 125 121 122 119 113 111 112 109 102 102 103 94 79 89 113 123 134 125 117 112 107 103 101 95 102 114 115 111 106 106 108 108 100
93 325 356 55 52 55 86 100 103 116 123 118 120 124 118 110 105 106 108 113 111 103 95 82 73 93 109 115 118 116 110 105 103 99 93 86 88 94 104 112 115 115 113 111
89 303 40 34 39 75 71 73 74 76 91 111 114 113 119 123 122 120 112 108 107 105 100 90 78 75 84 98 108 108 107 106 101 97 104 94 79 64 81 77 111 132 134 131
205 221 169 202 170 95 92 85 94 98 86 100 111 112 108 116 124 122 118 111 101 96 96 90 83 76 74 86 109 116 112 111 114 113 114 112 105 80 53 63 64 72 83 101
182 192 154 180 118 97 97 91 96 105 115 113 103 109 110 113 108 109 110 106 109 109 102 95 88 80 68 82 102 109 114 116 120 123 126 127 121 115 100 64 57 58 64 78
118 100 90 92 109 95 93 86 85 88 97 110 111 114 116 111 105 105 109 109 107 104 99 94 89 78 65 87 105 106 108 112 118 122 125 128 125 120 118 117 100 68 54 69
31 80 124 105 87 91 96 88 86 89 98 105 113 116 117 119 115 109 105 102 102 98 93 91 87 68 58 82 97 101 101 103 107 107 110 120 122 121 118 114 111 107 91 67
42 58 86 93 91 96 103 103 105 112 116 112 110 109 110 112 109 102 98 96 100 99 93 92 89 77 76 90 94 95 100 107 105 103 107 112 115 119 119 117 115 113 108 101
107 107 119 116 110 106 110 121 127 129 122 123 121 118 112 104 96 89 82 81 85 84 84 87 87 88 94 96 100 99 99 110 110 102 103 113 117 120 121 121 118 111 101 94
162 179 177 159 148 138 135 131 128 127 130 134 127 120 115 113 113 108 100 92 85 73 59 58 73 87 86 88 91 94 94 94 95 97 98 99 102 104 109 113 117 115 107 96
131 134 142 140 141 144 142 137 130 125 123 122 120 120 118 118 120 115 106 97 94 87 54 55 78 86 90 93 93 91 97 99 93 88 93 99 95 98 107 108 109 109 110 105
136 137 134 128 124 125 122 117 115 115 117 119 117 115 113 113 116 111 102 94 93 105 93 85 83 81 85 92 91 92 99 102 101 98 98 103 106 103 102 107 108 106 101 100
121 125 131 129 119 115 117 118 119 120 119 120 121 124 123 118 115 114 113 104 78 88 93 89 84 83 83 90 90 89 93 96 100 105 107 108 108 106 103 103 104 105 106 104
117 119 119 119 117 114 110 113 119 121 120 119 120 121 120 117 114 105 98 110 111 102 96 88 87 94 94 90 88 91 94 97 101 104 105 111 117 117 115 115 113 114 114 113
112 116 115 114 116 116 107 106 111 115 118 122 126 127 127 126 127 127 120 112 113 106 101 99 104 101 96 91 90 92 93 94 97 101 105 111 118 122 123 121 120 120 121 120
116 111 114 117 111 107 107 108 108 109 112 117 120 124 126 120 109 108 119 122 117 113 107 110 107 100 95 92 93 94 95 97 102 105 108 111 113 114 115 117 117 117 117 116
124 119 117 120 117 120 124 120 111 109 112 112 113 112 112 121 129 132 127 127 125 117 111 114 113 107 101 101 102 103 103 107 113 113 110 112 115 115 113 112 114 115 113 116
123 123 124 127 131 132 131 127 122 123 122 119 117 119 115 110 114 116 115 123 124 120 120 120 117 110 103 103 107 110 109 108 107 108 113 114 112 112 114 115 115 116 120 122
110 108 107 104 108 119 123 124 125 127 130 131 130 127 123 121 119 120 118 117 119 121 121 116 114 113 108 105 107 106 108 109 109 111 113 115 118 120 124 124 123 122 122 122